Providence, RI

8:25 AM EST on November 14, 2019 (GMT -0500)
Green State

Weather History for KPVD - October, 2019

Change the Weather History Date:

Sunday, October 20, 2019

  Actual Average Record
Temperature  
Mean Temperature 48 °F 52 °F  
Max Temperature 60 °F 62 °F 80 °F (1947)
Min Temperature 36 °F 42 °F 23 °F (1970)
Degree Days  
Heating Degree Days 17 13  
Month to date heating degree days 193 201  
Since 1 July heating degree days 236 298  
Cooling Degree Days 0 0  
Month to date cooling degree days 10 6  
Year to date cooling degree days 871 742  
Moisture  
Dew Point 43 °F    
Average Humidity 72    
Maximum Humidity 100    
Minimum Humidity 44    
Precipitation  
Precipitation T in 0.12 in 3.13 in (1906)
Month to date precipitation 3.35 2.50  
Year to date precipitation 38.82 37.02  
Snow  
Snow 0.00 in 0.00 in 0.00 in (2009)
Month to date snowfall 0.0 0.0  
Since 1 July snowfall 0.0 0.0  
Since 1 September snowfall 0.0 0.0  
Snow Depth 0.00 in    
Sea Level Pressure  
Sea Level Pressure 30.07 in    
Wind  
Wind Speed 4 mph (ESE)    
Max Wind Speed 10 mph    
Max Gust Speed 12 mph    
Visibility 10 miles    
Events Rain    
T = Trace of Precipitation, MM = Missing Value Source: NWS Daily Summary

Daily Weather History Graph

Daily Weather History Graph

Search for Another Location

Airport or City:

Astronomy

Oct. 20, 2019 Rise Set
Actual Time 7:03 AM EDT 5:57 PM EDT
Civil Twilight 6:35 AM EDT 6:25 PM EDT
Nautical Twilight 6:02 AM EDT 6:57 PM EDT
Astronomical Twilight 5:30 AM EDT 7:29 PM EDT
Moon 10:59 PM EDT (10/20) 1:32 PM EDT (10/20)
Length of Visible Light 11h 50m
Length of Day
10h 53m
Waning Gibbous, 59% of the Moon is Illuminated
Oct 20
Waning Gibbous
Oct 21
Last Quarter
Oct 27
New
Nov 4
First Quarter
Nov 12
Full

Hourly Weather History & Observations

Time (EDT) Temp. Windchill Dew Point Humidity Pressure Visibility Wind Dir Wind Speed Gust Speed Precip Events Conditions
12:51 AM 42.1 °F - 39.9 °F 92% 30.06 in 10.0 mi Calm Calm - N/A   Clear
1:51 AM 41.0 °F 38.0 °F 39.9 °F 96% 30.06 in 10.0 mi WSW 4.6 mph - N/A   Clear
2:51 AM 39.9 °F 36.7 °F 39.0 °F 97% 30.07 in 10.0 mi WNW 4.6 mph - N/A   Clear
3:51 AM 39.0 °F - 37.9 °F 96% 30.07 in 10.0 mi Calm Calm - N/A   Clear
4:51 AM 37.9 °F - 37.0 °F 97% 30.06 in 10.0 mi Calm Calm - N/A   Clear
5:51 AM 37.9 °F 35.5 °F 36.0 °F 93% 30.07 in 10.0 mi West 3.5 mph - N/A   Clear
6:51 AM 37.0 °F - 36.0 °F 96% 30.08 in 10.0 mi Calm Calm - N/A   Partly Cloudy
7:51 AM 39.0 °F 35.7 °F 37.0 °F 93% 30.08 in 10.0 mi North 4.6 mph - N/A   Scattered Clouds
8:51 AM 44.1 °F - 39.0 °F 82% 30.10 in 10.0 mi Calm Calm - N/A   Mostly Cloudy
9:51 AM 48.9 °F - 42.1 °F 77% 30.12 in 10.0 mi Calm Calm - N/A   Mostly Cloudy
10:51 AM 54.0 °F - 42.1 °F 64% 30.11 in 10.0 mi Calm Calm - N/A   Mostly Cloudy
11:51 AM 57.9 °F - 42.1 °F 56% 30.10 in 10.0 mi Variable 4.6 mph - N/A   Mostly Cloudy
12:51 PM 59.0 °F - 37.9 °F 46% 30.08 in 10.0 mi South 5.8 mph - N/A   Mostly Cloudy
1:51 PM 60.1 °F - 39.9 °F 47% 30.08 in 10.0 mi SSW 5.8 mph - N/A   Mostly Cloudy
2:51 PM 60.1 °F - 44.1 °F 55% 30.07 in 10.0 mi SE 6.9 mph - N/A   Overcast
3:51 PM 59.0 °F - 45.0 °F 60% 30.07 in 10.0 mi SSE 3.5 mph - N/A   Overcast
4:51 PM 57.9 °F - 48.0 °F 70% 30.05 in 10.0 mi ESE 4.6 mph - N/A   Overcast
5:51 PM 57.0 °F - 48.0 °F 72% 30.05 in 10.0 mi Calm Calm - N/A   Overcast
6:51 PM 55.9 °F - 50.0 °F 80% 30.05 in 10.0 mi Calm Calm - N/A   Overcast
7:51 PM 55.0 °F - 48.9 °F 80% 30.05 in 10.0 mi SSE 3.5 mph - 0.00 in Rain Light Rain
8:51 PM 54.0 °F - 50.0 °F 86% 30.05 in 10.0 mi NE 4.6 mph - 0.00 in Rain Light Rain
9:51 PM 54.0 °F - 51.1 °F 90% 30.04 in 10.0 mi NNE 4.6 mph - 0.00 in Rain Light Rain
10:51 PM 54.0 °F - 50.0 °F 86% 30.04 in 10.0 mi North 4.6 mph - 0.00 in Rain Light Rain
11:51 PM 54.0 °F - 50.0 °F 86% 30.05 in 10.0 mi NNE 8.1 mph - 0.00 in Rain Light Rain